EW7535 Weather Reports


Display with metric or nautical units.
time (UTC)temp
F
wind
direction
speed
MPH
gust
MPH
rain 1hr
in
rain 24hr
in
rain mn
in
humidity
%
barometer
mb
20260506001545 74 289 10.0 19.0 0.00 0.36 0.14 30 1007.3
20260506000110 75 250 3.0 19.0 0.00 0.36 0.14 28 1007.3
20260505234546 76 288 5.0 11.0 0.00 0.36 0.14 28 1007.2
20260505233040 76 283 6.0 11.0 0.00 0.36 0.14 27 1007.1
20260505231510 76 290 9.0 22.0 0.00 0.36 0.14 26 1007.1
20260505230010 77 312 3.0 8.0 0.00 0.36 0.14 30 1007.1
20260505224503 75 297 0.0 6.0 0.00 0.36 0.14 34 1007.3
20260505223003 75 285 3.0 9.0 0.00 0.36 0.14 35 1007.5
20260505221502 74 248 2.0 11.0 0.00 0.36 0.14 34 1007.6
20260505220100 76 242 5.0 13.0 0.00 0.36 0.14 31 1007.7
20260505214556 77 285 0.0 7.0 0.00 0.36 0.14 34 1008.0
20260505213055 76 232 4.0 15.0 0.00 0.36 0.14 30 1008.1
20260505211553 76 284 4.0 15.0 0.00 0.36 0.14 32 1008.1
20260505210052 76 257 6.0 12.0 0.00 0.36 0.14 29 1008.2
20260505204521 76 296 6.0 12.0 0.00 0.36 0.14 33 1008.2
20260505203019 74 282 7.0 14.0 0.00 0.36 0.14 33 1008.1
20260505201514 73 243 2.0 16.0 0.00 0.36 0.14 41 1008.3
20260505200012 73 264 3.0 13.0 0.00 0.36 0.14 42 1008.4
20260505194509 71 257 0.0 5.0 0.00 0.36 0.14 55 1008.6
20260505193010 70 102 0.0 3.0 0.00 0.36 0.14 54 1008.5
20260505191552 70 268 2.0 6.0 0.00 0.36 0.14 55 1008.7
20260505190136 71 300 0.0 5.0 0.00 0.36 0.14 55 1008.9
20260505184535 68 1 2.0 5.0 0.00 0.36 0.14 58 1009.2
20260505183029 68 291 1.0 6.0 0.00 0.36 0.14 61 1009.4
20260505181528 67 238 0.0 4.0 0.00 0.36 0.14 61 1009.7
20260505180038 67 302 0.0 3.0 0.00 0.36 0.14 61 1009.7
20260505174524 67 295 2.0 5.0 0.00 0.36 0.14 62 1009.7
20260505173026 67 283 1.0 4.0 0.00 0.36 0.14 61 1009.7
20260505171522 66 308 1.0 3.0 0.00 0.36 0.14 64 1009.7
20260505170023 67 297 0.0 4.0 0.00 0.36 0.14 64 1009.6
20260505164515 66 120 0.0 3.0 0.00 0.36 0.14 73 1009.6
20260505163015 64 131 0.0 2.0 0.00 0.36 0.14 79 1009.6
20260505161508 62 262 0.0 0.0 0.00 0.36 0.14 80 1009.8
20260505153003 62 250 0.0 0.0 0.00 0.36 0.14 83 1009.4
20260505151601 61 123 0.0 3.0 0.00 0.36 0.14 82 1009.3
20260505150126 61 123 0.0 0.0 0.00 0.36 0.14 86 1009.3
20260505124551 57 88 0.0 1.0 0.01 0.36 0.14 90 1008.1
20260505123142 58 115 0.0 0.0 0.02 0.36 0.14 91 1008.2
20260505121612 57 115 0.0 0.0 0.02 0.36 0.14 90 1008.1
20260505120040 57 115 0.0 0.0 0.01 0.35 0.13 88 1007.8
20260505114536 58 111 0.0 5.0 0.01 0.35 0.13 87 1007.6
20260505113036 58 93 0.0 0.0 0.01 0.34 0.12 88 1008.0
20260505111538 57 94 0.0 4.0 0.01 0.34 0.12 88 1008.0
20260505101525 58 96 0.0 4.0 0.03 0.33 0.11 90 1008.9
20260505100035 57 94 2.0 7.0 0.03 0.32 0.10 90 1009.0
20260505094523 58 103 1.0 6.0 0.03 0.32 0.10 90 1009.2
20260505093025 58 111 3.0 12.0 0.03 0.31 0.09 90 1008.9
20260505091518 58 119 4.0 10.0 0.01 0.28 0.07 90 1009.4
20260505090013 58 109 3.0 8.0 0.02 0.28 0.07 89 1009.3
20260505084511 58 119 2.0 9.0 0.04 0.28 0.07 89 1009.9
20260505083004 58 136 1.0 4.0 0.04 0.28 0.06 89 1010.5
20260505081504 58 115 0.0 5.0 0.05 0.28 0.06 89 1010.7
20260505080100 58 88 1.0 3.0 0.05 0.27 0.05 89 1011.0
20260505074559 59 94 0.0 3.0 0.04 0.25 0.03 89 1011.3
20260505073100 59 101 0.0 1.0 0.04 0.24 0.02 90 1011.6
20260505071550 59 99 0.0 0.0 0.05 0.23 0.01 90 1011.3
20260505070047 59 99 0.0 1.0 0.07 0.22 0.00 89 1011.2
20260505064545 59 101 0.0 1.0 0.08 0.21 0.21 89 1011.2
20260505063017 59 104 0.0 2.0 0.09 0.20 0.20 87 1011.0
20260505061515 59 110 0.0 0.0 0.08 0.17 0.17 86 1011.1
20260505060009 59 100 0.0 3.0 0.07 0.15 0.15 87 1011.0
20260505054509 59 110 0.0 0.0 0.06 0.13 0.13 87 1010.8
20260505053008 59 100 0.0 1.0 0.04 0.11 0.11 85 1010.9
20260505051508 59 112 0.0 4.0 0.03 0.09 0.09 85 1010.7
20260505041611 60 98 0.0 0.0 0.01 0.06 0.06 78 1010.9
20260505034555 61 93 0.0 4.0 0.00 0.05 0.05 70 1010.2
20260505033053 60 86 2.0 9.0 0.01 0.05 0.05 70 1009.6
20260505031554 58 103 3.0 8.0 0.01 0.05 0.05 73 1009.2
20260505030022 58 124 3.0 9.0 0.03 0.05 0.05 73 1010.2
20260505024519 58 94 3.0 6.0 0.04 0.05 0.05 74 1010.3
20260505023026 59 98 2.0 6.0 0.04 0.04 0.04 74 1010.4
20260505021512 60 101 0.0 1.0 0.04 0.04 0.04 71 1010.3
20260505020007 63 300 0.0 1.0 0.02 0.02 0.02 64 1010.3
20260505014510 64 270 3.0 12.0 0.01 0.01 0.01 55 1010.2
20260505013100 64 251 0.0 1.0 0.00 0.00 0.00 57 1009.9
20260505011557 64 297 0.0 3.0 0.00 0.00 0.00 63 1009.4
20260505010107 66 284 0.0 0.0 0.00 0.00 0.00 56 1009.0
20260505004549 67 261 0.0 7.0 0.00 0.00 0.00 48 1009.1
20260505003049 69 271 2.0 7.0 0.00 0.00 0.00 44 1009.2